TimeEDT,TemperatureF,Dew PointF,Humidity,Sea Level PressureIn,VisibilityMPH,Wind Direction,Wind SpeedMPH,Gust SpeedMPH,PrecipitationIn,Events,Conditions,WindDirDegrees,DateUTC
12:53 AM,71.6,68.0,88,30.10,10.0,Calm,Calm,-,N/A,,Clear,0,2012-09-26 04:53:00
1:53 AM,70.0,66.9,90,30.07,9.0,Calm,Calm,-,N/A,,Clear,0,2012-09-26 05:53:00
2:53 AM,71.1,68.0,90,30.05,10.0,Calm,Calm,-,N/A,,Clear,0,2012-09-26 06:53:00
3:53 AM,71.6,69.8,94,30.05,10.0,NW,3.5,-,N/A,,Clear,310,2012-09-26 07:53:00
4:53 AM,72.0,69.1,91,30.04,10.0,Calm,Calm,-,N/A,,Partly Cloudy,0,2012-09-26 08:53:00
5:53 AM,71.1,69.1,93,30.05,10.0,West,4.6,-,N/A,,Clear,280,2012-09-26 09:53:00
6:53 AM,71.1,69.1,93,30.07,9.0,Calm,Calm,-,N/A,,Clear,0,2012-09-26 10:53:00
7:53 AM,73.0,70.0,90,30.08,8.0,Calm,Calm,-,N/A,,Clear,0,2012-09-26 11:53:00
8:53 AM,78.1,73.0,84,30.09,10.0,Calm,Calm,-,N/A,,Clear,0,2012-09-26 12:53:00
9:53 AM,82.9,75.9,79,30.10,10.0,NE,5.8,-,N/A,,Clear,50,2012-09-26 13:53:00
10:53 AM,84.9,73.9,69,30.11,10.0,NE,5.8,-,N/A,,Scattered Clouds,50,2012-09-26 14:53:00
11:53 AM,84.0,73.9,72,30.11,10.0,NNE,6.9,-,N/A,,Scattered Clouds,30,2012-09-26 15:53:00
12:53 PM,84.9,73.0,67,30.11,10.0,NE,9.2,-,N/A,,Partly Cloudy,50,2012-09-26 16:53:00
1:53 PM,84.9,73.0,67,30.09,10.0,NE,8.1,-,N/A,,Clear,50,2012-09-26 17:53:00
2:53 PM,84.9,73.0,67,30.07,10.0,ENE,9.2,-,N/A,,Scattered Clouds,60,2012-09-26 18:53:00
3:53 PM,84.0,73.9,72,30.06,10.0,ENE,6.9,-,N/A,,Clear,60,2012-09-26 19:53:00
4:53 PM,82.9,73.0,72,30.06,10.0,NE,8.1,-,N/A,,Clear,50,2012-09-26 20:53:00
5:53 PM,82.4,73.4,74,30.06,10.0,NE,6.9,-,N/A,,Scattered Clouds,40,2012-09-26 21:53:00
6:53 PM,81.0,73.9,79,30.08,10.0,NE,4.6,-,N/A,,Clear,40,2012-09-26 22:53:00
7:53 PM,80.1,73.9,81,30.10,10.0,Calm,Calm,-,N/A,,Overcast,0,2012-09-26 23:53:00
8:53 PM,79.0,75.0,88,30.10,10.0,Calm,Calm,-,0.01,,Mostly Cloudy,0,2012-09-27 00:53:00
9:53 PM,77.0,75.0,94,30.11,10.0,Calm,Calm,-,N/A,,Clear,0,2012-09-27 01:53:00
10:53 PM,75.9,73.9,94,30.12,10.0,Calm,Calm,-,N/A,,Clear,0,2012-09-27 02:53:00
11:53 PM,75.2,73.4,94,30.10,10.0,North,3.5,-,N/A,,Clear,360,2012-09-27 03:53:00